Location: Lone Pine Community Mobile Home Park
(42.7367°N, 73.8567°W)
Time: 10:14:14
(UTC+00:00)

USA 305 - Pass Details

Date: 29 October 2020
Orbit: 569 x 577 km, 54.0° (Epoch: 22 November)

Event Time Altitude Azimuth Distance (km) Brightness Sun altitude
Rises 22:37:11 0° 310° (NW) 2,787 7.0 -9.0°
Reaches altitude 10° 22:39:37 10° 319° (NW) 1,885 6.0 -9.4°
Maximum altitude 22:43:34 35° 26° (NNE) 942 3.7 -10.2°
Enters shadow 22:46:38 15° 87° (E) 1,581 4.5 -10.7°
